Location: Les Salelles
(44.4192°N, 4.1044°E)
Time: 19:46:44
(UTC+00:00)

Iridium 4 Rocket - Pass Details

Date: 20 January 2021
Orbit: 583 x 906 km, 86.9° (Epoch: 03 March)

Event Time Altitude Azimuth Distance (km) Brightness Sun altitude
Rises 18:39:07 0° 359° (N) 3,498 6.9 -21.6°
Reaches altitude 10° 18:41:39 10° 1° (N) 2,525 6.1 -22.0°
Maximum altitude 18:47:22 73° 86° (E) 866 3.5 -23.0°
Drops below altitude 10° 18:52:36 10° 171° (S) 2,319 5.9 -24.0°
Sets 18:54:50 0° 174° (S) 3,192 6.7 -24.4°
